Timeline UpdatesTrip UpdatesNews PostsPvt PostsTravel TipsAdmin PostsConv PostsFollowed PostsChat RequestsBlog PostsPNR Posts

Disclaimer
Search
 
 
Thu Apr 24, 2014 06:21:25 ISTHomeTrainsΣChainsAtlasPNRForumGalleryNewsFAQTripsMembersLoginFeedback
No Recent News for this Train
Other Trains in the News **new
Latest...
⇐ Return Journey: Train# 59208

59207/Bhavnagar Okha Passenger

Feb 22 2014 (11:41PM)
Change Departure Station:
Change Arrival Station:
Post a Train Travel TipPost a Train Travel Tip **new
Post a Comment/Question/Picture/VideoPost a Comment/Question/Picture/Video
Pantry/Catering
✕ NO Pantry Car
✕ NO Catering
RSA - Rake Sharing
59267/59268 Bhavnagar-Palitana Passenger; RSA 09201/09202; BVC-SUNR(Triweekly) PASS.
Rake/Coach Composition
ENG.SLR.GEN.GEN.S1.S2.GEN.GEN.SLR(RMS).; By Darshan Chauhan Entry# 684153
Loco
LOCO RTM WDM 3A.
News    PNR    Forum    Time-Table    Availability    Fare Chart    Map    Arr/Dep History    Trips    Gallery    ΣChains    X/O    Timeline    
Travel Time: 7h 38m    29 halts    Distance: 256 km    Avg Speed: 33 km/hr
Type: Passenger
Zone: WR/Western
Departs @ 21:25 (Avg 3m late)
Platform# 1
SMTWTFS
Bhavnagar Terminus/BVC 
Arrives @ 05:03 +1 night (Avg 2m late)
Platform# ???
SMTWTFS
Sindhawadar/SDD 

29 halts. 36 intermediate Stations between Bhavnagar Terminus and Sindhawadar

Show ALL intermediate Stations  Show Old Time-Table

#CodeStation NameX/OArrivesAvgDepartsAvgHaltPFDay#KmSpeedElevZoneAddress
1BVC»Bhavnagar Terminus (2)»  -21:25+3110.03311mWRBhavnagar, Gujarat
2BVPBhavnagar Para  21:30+721:31+91m--12.74313mWRBhavnagar, Gujarat
3VTJVartej  21:41+1221:42+121m--19.94524mWRBhavnagar, Gujarat
4KDMRKodiyar Mandir  21:49+1321:50+131m--115.24592mWRSH 21, Gujarat
5SOJNSihor Gujarat  21:57+1421:58+141m--120.45042mWRShihor, Gujarat
6SGDSongadh (1)  22:07+1422:08+141m1127.95240mWRBhavnagar, Gujarat
7BJUDBajudX  22:15+1122:16+111m--134.02937mWRState Highway 31, Gujarat
8SOASanosra  22:25+1122:26+141m1138.36636mWRState Highway 25, Gujarat
9DLJDhola Junction  22:36+1522:37+151m1149.36137mWRDhola, Gujarat
10UJUjalvav  22:47+1622:48+171m--159.55064mWRState Highway 31, Gujarat
11ALMRAlampur  22:56+1722:57+181m--166.26459mWRState Highway 31, Gujarat
12NGANingala Junction  23:04+1823:05+181m--173.75657mWRState Highway 117, Gujarat
13LTDLathidad  23:13+1823:14+191m--181.24768mWRTajpar Rd, Gujarat
14BTDBotad Junction (5)  23:28+2023:30+242m1192.26896mWRBotad, Gujarat
15KDIKundli  23:40+2723:41+271m--1103.76586mWRState Highway 38, Gujarat
16RURRanpur  23:51+2623:52+261m--1114.46561mWRRanpur, Gujarat
17CDAChuda  00:07+2400:08+241m--2130.76063mWRState Highway 38, Gujarat
18LMLimbdi (1)  00:18+2300:19+241m12140.83651mWRLimbdi, Gujarat
19WCWadhwan City  00:53+600:54+61m--2161.13667mWRSurendranagar, Gujarat
20JVNJorawarnagar Junction (1)  01:00+701:01+71m12164.62869mWRSurendra Nagar, Gujarat
21SRGTSurendranagar Gate (1)  01:07+701:08+71m12167.4871mWRSurendranagar, Gujarat
22SUNRSurendranagar Junction (4)X  01:25+601:40+915m12169.63672mWRSurendra Nagar, Gujarat
23DXRDigsar  02:03+802:04+91m--2183.348100mWRState Highway 17, Gujarat
24MOLMuli Road  02:14+902:15+131m12191.350108mWRSurendranagar, Gujarat
25RARampardaXO  02:26+1202:27+191m--2200.520141mWRSurendranagar, Gujarat
26VDVagdiya  02:46+1002:47+221m--2206.952149mWRState Highway 113, Gujarat
27THANThan Junction (3)  02:59+2003:01+212m12217.357138mWRThangadh, Gujarat
28DLDaladi  03:16+2403:17+261m--2231.441115mWRDaladi, Gujarat
29WKRWankaner Junction (4)X  03:35+2604:43+168m--2243.94087mWRWankaner, Gujarat
30AXAAmarsar  04:54+104:55+21m--2251.239113mWRRajkot, Gujarat
31SDD•Sindhawadar•  05:03+205:04+41m--2256.434105mWRSindhavadar, Gujarat
32KNKTKanakotX  05:16+205:18+92m--2263.147133mWRState Highway 113, Gujarat
33KHCKhoranaX  05:33+405:34+111m--2274.931131mWRState Highway 113, Gujarat
34RJTRajkot Junction (5)XO  05:55+1107:05+270m32285.654128mWRRajkot, Gujarat
35KHDIKhanderi  07:17+507:18+81m--2296.460111mWRRajkot, Gujarat
36PDHPadadhari  07:32+707:33+91m--2310.44671mWRPaddhari, Gujarat
37CXChanol  07:42+807:43+81m--2317.34889mWRState Highway 25, Gujarat
38HMHadmatiya Junction  07:52+807:53+81m--2324.46770mWRHadmatiya Junction Railway Station, Gujarat
39JALDJaliya DevaniX  08:00+808:01+91m--2332.34250mWRRanuja Village Rd, Gujarat
40WTJJam Wanthali  08:12+908:13+91m--2339.95952mWRRanuja Village Rd, Gujarat
41ALBAlia Bada  08:25+808:26+91m--2351.64227mWRJamnagar, Gujarat
42HAPAHapa (3)X  08:40+708:45+125m--2361.54316mWRJamnagar, Gujarat
43JAMJamnagar (2)X  08:57+1309:00+173m--2370.25914mWRJamnagar, Gujarat
44LKBLLakhabawalX  09:12+1709:13+191m--2382.02721mWRJamnagar, Gujarat
45PPLIPipli  09:34+909:35+111m--2391.53930mWRJamnagar, Gujarat
46KNLSKanalus JunctionX  09:43+1209:44+131m--2396.63436mWRJamnagar, Gujarat
47MDPRModpur  10:03+810:04+101m--2407.45647mWRKhambhalia-Lalpur, Gujarat
48SYQSinhan  10:14+1210:15+121m--2416.75250mWRSH 6, Gujarat
49KMBLKhambhalia  10:24+1110:26+112m--2424.55549mWRKhambhalia, Gujarat
50VQDViramdad  10:34+1110:35+111m--2431.96549mWRKhambhalia-Dwarka (SH 6), Gujarat
51BHTLBhatel  10:45+1110:46+121m--2442.64735mWRJamnagar, Gujarat
52BPKABhopalka  11:04+1111:05+121m--2456.85446mWRJamnagar, Gujarat
53BHTABhatiya  11:16+1311:18+122m--2466.86334mWRNational Highway 8E, Gujarat
54KRGAKuranga  11:29+1011:30+101m--2478.46312mWRJamnagar, Gujarat
55OKDOkha Madhi  11:38+1011:39+111m--2486.71085mWRNH 8E, Gujarat
56GRJAGorinjaX  11:49+1011:50+121m--2504.7235mWRKhambhalia-Dwarka (SH 6), Gujarat
57DWKDwarka (2)  12:00+1112:01+141m--2508.52514mWRDwarka, Gujarat
58VVAVarvala  12:13+612:14+61m--2513.63114mWRJamnagar, Gujarat
59BMRNBhimranaX  12:36+412:38+152m--2524.8136mWRBhimrana, Gujarat
60MTHPMithapur  12:52+312:53+31m--2527.7213mWRJamnagar, Gujarat
61OKHAOkha (3)  13:20-1---2537.2-5mWROkha, Gujarat
Scroll to Top
Scroll to Bottom